sat.trackr.live / text

‹ back to catalog

STARLINK-35366

NORAD 66512 · 2025-263AD

PAYLOAD ACTIVE UNKNOWN

§ Identity

Operator
Country
US
Launch date
2025-11-15
Launch site
AFETR
Launch vehicle
Mass (kg)
RCS (m²)

Purposes: comms

External: N2YO · Heavens-Above · Gunter

§ Orbital elements

Epoch: 2026-09-20T05:59:18.489120Z

Period
94.27 min
Inclination
43.0001°
Eccentricity
0.0001603
Mean motion
15.27585288 rev/d
Perigee alt
481.9 km
Apogee alt
484.1 km
Semi-major
6,861.2 km
B*
3.2846e-4
RAAN
331.9716°
Arg perigee
284.3141°
Mean anomaly
75.7533°
Rev number
4,865

§ Raw data

STARLINK-353661 66512U 25263AD  26263.24951955  .00008789  00000+0  32846-3 0  99942 66512  43.0001 331.9716 0001603 284.3141  75.7533 15.27585288 48657

JSON: /api/v1/satellites/66512 · /tle

For live sub-satellite position, see the globe view (requires WebGL).

§ Visibility from observer

Set your observer location to see the next 7 days of passes ≥ 10°. The values pass through the URL so the page stays shareable.

No JS? Fill the form by hand. The geolocation button needs JavaScript.